STARLINK-38070, 69990

Orbit data source: Space-Track

STARLINK-38070, 69990 is a payload satellite owned by SpaceX/Seattle (US) in SSO that was launched on Sat, 11 Jul 2026 UTC via an FALCON 9 launch vehicle from the Air Force Western Test Range (AFWTR). Payload-class satellites include a variety of spacecraft equipped with specific instruments for various scientific and technological missions. These include communications satellites like Starlink; space stations such as the ISS; scientific satellites like the Hubble; Earth observation satellites from companies like Planet Labs, Umbra, and HawkEye 360; GPS; miniature CubeSats for education and research; and military/defense satellites.

Loading next visibility...
Identifier
69990, 2026-159R
Orbit
SSO
Country
Flag of USUS
Related business
Manufacturer
SpaceX/Seattle
Mission
Operational spacecraft
Bus & Motor
STARLINK V2MO, Unknown motor
Mass
575 kg wet, ~530 kg dry
Launch date (UTC)
2026-07-11 (1 month ago)
Launch vehicle
FALCON 9
Launch site
Air Force Western Test Range (AFWTR)
Object type
Payload
Rocket body
Debris
Shape & HBR
BOX + PAN, 17.7 m
Radar Cross Section
Large (>1 m²)

Expand to show TLE details & history
Last TLE update: 13 hours ago

TLE from 13 hours ago
0 STARLINK-38070
1 69990U 26159R   26228.54500333  .00207474  00000-0  13536-2 0  9993
2 69990  97.2837  68.9313 0001171 133.9325 226.2037 15.75270853  6963
Epoch: 2026-08-16T13:04Z
TLE epoch observation values (Epoch: 2026-08-16T13:04:48.287Z)
Latitude
-0.00004°
Longitude
-92.20988°
Altitude
347.574 km
Speed
7.7 km/s
True Right ascension
04h 35m 43s
True Declination
0° 00' 00"
Sunlit
Object was in daylight at epoch
Visualization orbit readout
Latitude
Unknown
Longitude
Unknown
Altitude
Unknown
Speed
Unknown
Apparent Right ascension
Unknown
Apparent Declination
Unknown
Sunlit
N/A
Visualization observer readout
Local Sidereal Time
16:56:01
Azimuth
Unknown
Elevation
Unknown
Doppler factor
Unknown
Orbital elements
Apogee altitude
341.535 km
Perigee altitude
339.961 km
Semi-major axis
6,718.885 km
Eccentricity
0.00012
Inclination
97.2837°
RAAN
68.9313°
Arg. of periapsis
133.9325°
True anomaly
226.19402°
Mean anomaly
226.2037°
Eccentric anomaly
226.19886°
Mean motion
3.94092 °/min
Orbital period
91.35 mins
BSTAR
0.0013536
Loading maneuver chart data...
Computing Atmospheric mass density...
Loading historical data...
Loading historical data...
Loading historical data...
Loading historical data...
Loading historical data...
Loading historical data...
Loading historical data...

Documentation

Showing up to 5 results
|